Regional Weather Roundup
Issued by NWS Sterling, VA

Home | Current Version | Previous Version | Text Only | Print | Product List | Glossary On
Versions: 1 2 3 4 5 6 7 8 9 10 11 12 13 14 15 16 17 18 19 20 21 22 23 24 25 26 27 28 29 30 31 32 33 34 35 36 37 38 39 40 41 42 43 44 45 46 47 48 49 50
000
ASUS41 KLWX 282310
RWRLWX

REGIONAL WEATHER ROUNDUP
NATIONAL WEATHER SERVICE BALTIMORE MD/WASHINGTON DC
600 PM EST SAT FEB 28 2015

Note: "FAIR" indicates few or no clouds below 12,000 feet
with no significant weather and/or obstructions to visibility.
 TC=TEMPERATURE CELSIUS

 * =Non NWS site. Station does not report precipitation (e.g. rain,
    snow, etc.), thunder, or fog.

DCZ001-MDZ009-015-VAZ040>042-051-053>054-010000-
WASHINGTON METRO

CITY           SKY/WX    TMP DP  RH WIND       PRES   REMARKS
WASHINGTON NAT PTCLDY    30   4  33 S3        30.77S
DULLES         PTCLDY    27   0  31 CALM      30.75S
ANDREWS AFB    CLEAR     27   9  48 SE8       30.74S WCI  18
FT BELVOIR     CLEAR     29   2  31 S3        30.76S
QUANTICO       CLEAR     29   7  39 CALM      30.78S
COLLEGE PARK*  CLEAR     32   1  27 CALM      30.76S
LEESBURG*      CLOUDY    30   7  37 CALM      30.75S
MANASSAS*      CLEAR     28   5  37 CALM      30.75F
GAITHERSBURG*  MOCLDY    27   0  31 W3        30.77S

$$

MDZ006>007-011-014-010000-
BALTIMORE METRO

CITY           SKY/WX    TMP DP  RH WIND       PRES   REMARKS
BWI AIRPORT    PTCLDY    26   4  38 SE5       30.75S
MD SCIENCE CTR   N/A     26   7  44 MISG      30.75R
MARTIN STATE   PTCLDY    25   9  50 SE5       30.79S
ANNAPOLIS      CLEAR     24   6  46 SE3       30.78S
FORT MEADE*    CLEAR     28   5  37 SE5       30.78R

$$

MDZ012-015-019>023-010000-
MARYLAND EASTERN SHORE

CITY           SKY/WX    TMP DP  RH WIND       PRES   REMARKS
OCEAN CITY     CLEAR     25   9  50 E5        30.78S
SALISBURY      FAIR      31   6  35 CALM      30.77R
BAY BRIDGE AP*   N/A     28   1  31 E3        30.78F
CAMBRIDGE*     CLEAR     30   9  40 CALM      30.78R
EASTON*        CLEAR     28   7  40 CALM      30.81S

$$

MDZ017>025-010000-
SOUTHERN MARYLAND

CITY           SKY/WX    TMP DP  RH WIND       PRES   REMARKS
PATUXENT RIVER PTCLDY    25   8  48 NE5       30.78R
ST INIGOES     CLEAR     26   4  38 E3        30.78R
LEONARDTOWN*   CLEAR     27   9  46 CALM      30.79R

$$

MDZ003>005-010000-
NORTH CENTRAL MARYLAND

CITY           SKY/WX    TMP DP  RH WIND       PRES   REMARKS
FREDERICK*     CLEAR     27   0  31 SW7       30.78R
HAGERSTOWN APT CLEAR     28   0  29 E3        30.70S
WESTMINSTER*   CLEAR     25  -4  28 W5        30.72R

$$

MDZ501>502-010000-
WESTERN MARYLAND

CITY           SKY/WX    TMP DP  RH WIND       PRES   REMARKS
OAKLAND*       MOCLDY    21   0  39 SE8       30.49F WCI  12
CUMBERLAND*    CLEAR     32   5  32 CALM      30.70S

$$

VAZ025>031-010000-
SHENANDOAH VALLEY

CITY           SKY/WX    TMP DP  RH WIND       PRES   REMARKS
WINCHESTER*    PTCLDY    28   0  29 E5        30.69F
FRONT ROYAL*   FAIR      28   7  40 E5        30.68F
LURAY*         FAIR      32  14  47 CALM      30.66S
NEW MARKET*    FAIR      26  13  58 CALM      30.66S
STAUNTON*      CLEAR     30  10  43 S5        30.66F
WAYNESBORO*    FAIR      27  10  48 SE7       30.63S

$$

WVZ021-048>050-054>055-010000-
EASTERN WEST VIRGINIA PANHANDLE

CITY           SKY/WX    TMP DP  RH WIND       PRES   REMARKS
MARTINSBURG    CLEAR     27   2  34 S5        30.71S
PETERSBURG*    NOT AVBL

$$

VAZ036>039-050-010000-
CENTRAL FOOTHILLS

CITY           SKY/WX    TMP DP  RH WIND       PRES   REMARKS
CHARLOTTESVILL CLEAR     30   7  37 S3        30.70F
CULPEPER*      CLEAR     28   9  43 CALM      30.74F
ORANGE*        CLEAR     30  10  43 CALM      30.74F
GORDONSVILLE*  FAIR      29   7  40 NE3       30.72S
WARRENTON*     FAIR      30  16  55 CALM      30.73F

$$

VAZ055>057-010000-
NORTH AND CENTRAL PIEDMONT

CITY           SKY/WX    TMP DP  RH WIND       PRES   REMARKS
FREDERICKSBRG* CLEAR     32   9  37 CALM      30.75F
STAFFORD*      CLEAR     28   3  34 E6        30.79S

$$

NCZ024-NYZ072-PAZ021-071-VAZ022-071-010000-
OTHER REGIONAL OBSERVATIONS

CITY           SKY/WX    TMP DP  RH WIND       PRES   REMARKS
NEW YORK CITY  CLEAR     28  -1  28 CALM      30.75F
PHILADELPHIA   MOCLDY    30   2  30 S5        30.77R
PITTSBURGH     PTCLDY    24   1  36 E5        30.60F
ROANOKE        CLOUDY    31  13  47 E8        30.66F WCI  23
RICHMOND       MOCLDY    32  10  40 N5        30.75R
RALEIGH        MOCLDY    34  16  47 NE7       30.69R

$$

ANZ530>537-010000-
MARINE OBSERVATIONS

STATION/POSITION TIME  TEMP    WIND        PRES
                       AIR SEA DIR/SP/G
                 (UTC) (F)     (DEG/KT/KT) (MB)
THOMAS PT LIGHT  2300   26 32  130/  5/  6 1043.2F
BALT KEY BRIDGE  2200   26     100/  9/ 10 1042.1R
COVE POINT       2200   24      40/  5/  5 1041.9F
LEWISETTA        2200   26 34     CALM     1041.9F
SOLOMONS ISLAND  2200      34                N/A

$$



USA.gov is the U.S. government's official web portal to all federal, state and local government web resources and services.